FW9540 Weather Reports


time (UTC)temp
C
wind
direction
speed
KPH
gust
KPH
rain 1hr
cm
rain 24hr
cm
rain mn
cm
humidity
%
barometer
mb
20260502195937 12 232 0.0 0.0 0.00 0.00 0.00 76 1018.9
20260502195438 13 232 0.0 0.0 0.00 0.00 0.00 76 1018.9
20260502194934 13 232 0.0 0.0 0.00 0.00 0.00 75 1018.8
20260502194435 13 232 0.0 0.0 0.00 0.00 0.00 75 1018.8
20260502193344 13 232 0.0 0.0 0.00 0.00 0.00 73 1018.7
20260502192838 13 232 0.0 0.0 0.00 0.00 0.00 74 1018.5
20260502192334 14 232 0.0 0.0 0.00 0.00 0.00 73 1018.6
20260502191812 14 232 0.0 0.0 0.00 0.00 0.00 72 1018.5
20260502191244 14 232 0.0 0.0 0.00 0.00 0.00 71 1018.5
20260502190741 14 232 0.0 0.0 0.00 0.00 0.00 72 1018.4
20260502190237 14 232 0.0 0.0 0.00 0.00 0.00 72 1018.4
20260502185709 14 232 0.0 0.0 0.00 0.00 0.00 71 1018.3
20260502184712 15 232 0.0 1.6 0.00 0.00 0.00 72 1018.3
20260502184209 15 232 0.0 1.6 0.00 0.00 0.00 72 1018.2
20260502183210 15 232 1.6 3.2 0.00 0.00 0.00 69 1018.1
20260502182639 16 232 0.0 3.2 0.00 0.00 0.00 69 1018.1
20260502182137 17 232 0.0 1.6 0.00 0.00 0.00 67 1018.1
20260502181610 17 232 0.0 4.8 0.00 0.00 0.00 64 1018.0
20260502180555 18 232 0.0 3.2 0.00 0.00 0.00 59 1017.9
20260502170334 21 238 4.8 11.3 0.00 0.00 0.00 47 1017.7
20260502164239 22 227 4.8 12.9 0.00 0.00 0.00 45 1017.7
20260502163738 22 219 3.2 12.9 0.00 0.00 0.00 45 1017.8
20260502163209 22 213 3.2 6.4 0.00 0.00 0.00 44 1017.8
20260502162707 22 207 4.8 12.9 0.00 0.00 0.00 44 1017.8
20260502162140 22 211 8.0 14.5 0.00 0.00 0.00 43 1017.8
20260502161638 22 229 8.0 14.5 0.00 0.00 0.00 44 1017.9
20260502160547 23 199 6.4 14.5 0.00 0.00 0.00 45 1017.9
20260502151859 23 205 3.2 11.3 0.00 0.00 0.00 40 1018.2
20260502151355 24 223 1.6 11.3 0.00 0.00 0.00 42 1018.2
20260502150854 24 192 3.2 11.3 0.00 0.00 0.00 40 1018.2
20260502150328 23 208 4.8 11.3 0.00 0.00 0.00 43 1018.3
20260502140116 24 279 1.6 11.3 0.00 0.00 0.00 43 1019.0
20260502130347 23 270 4.8 11.3 0.00 0.00 0.00 41 1019.7
20260502123809 23 169 1.6 9.7 0.00 0.00 0.00 42 1020.0
20260502123305 22 171 1.6 9.7 0.00 0.00 0.00 43 1020.1
20260502122735 22 215 3.2 8.0 0.00 0.00 0.00 43 1020.2
20260502122234 22 198 3.2 11.3 0.00 0.00 0.00 41 1020.3
20260502121706 22 205 3.2 11.3 0.00 0.00 0.00 42 1020.3
20260502121139 22 190 0.0 8.0 0.00 0.00 0.00 42 1020.5
20260502120640 22 210 0.0 8.0 0.00 0.00 0.00 46 1020.6
20260502115630 22 184 3.2 14.5 0.00 0.00 0.00 42 1020.7
20260502115124 22 227 0.0 4.8 0.00 0.00 0.00 44 1020.8
20260502114029 21 186 1.6 8.0 0.00 0.00 0.00 43 1021.0
20260502113458 21 150 4.8 14.5 0.00 0.00 0.00 44 1021.0
20260502112449 21 192 1.6 12.9 0.00 0.00 0.00 44 1021.2
20260502111920 21 187 1.6 12.9 0.00 0.00 0.00 44 1021.4
20260502111418 21 203 1.6 8.0 0.00 0.00 0.00 46 1021.5
20260502110907 21 229 1.6 11.3 0.00 0.00 0.00 45 1021.5
20260502110412 21 95 1.6 11.3 0.00 0.00 0.00 50 1021.5
20260502105842 21 161 1.6 8.0 0.00 0.00 0.00 46 1021.6
20260502105319 20 144 1.6 8.0 0.00 0.00 0.00 47 1021.8
20260502104815 20 180 1.6 9.7 0.00 0.00 0.00 47 1021.9
20260502104247 20 203 1.6 9.7 0.00 0.00 0.00 49 1021.9
20260502103734 20 200 0.0 6.4 0.00 0.00 0.00 50 1022.0
20260502103238 20 155 0.0 6.4 0.00 0.00 0.00 48 1022.1
20260502102731 20 68 0.0 8.0 0.00 0.00 0.00 49 1022.2
20260502102230 19 179 0.0 8.0 0.00 0.00 0.00 51 1022.3
20260502101727 19 177 0.0 8.0 0.00 0.00 0.00 53 1022.4
20260502101224 19 188 0.0 6.4 0.00 0.00 0.00 55 1022.4
20260502100721 18 188 0.0 6.4 0.00 0.00 0.00 55 1022.5
20260502100218 18 188 0.0 4.8 0.00 0.00 0.00 54 1022.6
20260502091451 17 98 0.0 6.4 0.00 0.00 0.00 58 1023.2
20260502090445 17 53 0.0 4.8 0.00 0.00 0.00 59 1023.3
20260502071514 11 200 0.0 1.6 0.00 0.00 0.00 75 1024.7
20260502070947 11 200 0.0 1.6 0.00 0.00 0.00 75 1024.8
20260502065941 11 203 0.0 3.2 0.00 0.00 0.00 76 1025.0
20260502065438 11 203 0.0 1.6 0.00 0.00 0.00 77 1024.9
20260502064913 10 204 0.0 1.6 0.00 0.00 0.00 79 1025.0
20260502064346 10 204 0.0 1.6 0.00 0.00 0.00 79 1025.0
20260502063843 10 204 0.0 1.6 0.00 0.00 0.00 80 1025.2
20260502063317 9 204 0.0 1.6 0.00 0.00 0.00 80 1025.2
20260502062818 9 204 0.0 1.6 0.00 0.00 0.00 82 1025.2
20260502061222 9 204 0.0 1.6 0.00 0.00 0.00 82 1025.2
20260502060654 8 204 0.0 1.6 0.00 0.00 0.00 82 1025.2
20260502060152 8 207 0.0 1.6 0.00 0.00 0.00 82 1025.3
20260502055627 8 207 0.0 1.6 0.00 0.00 0.00 81 1025.3
20260502054554 8 207 0.0 0.0 0.00 0.00 0.00 83 1025.4
20260502054049 8 207 0.0 0.0 0.00 0.00 0.00 83 1025.4
20260502053552 8 207 0.0 0.0 0.00 0.00 0.00 85 1025.4
20260502053023 7 207 0.0 0.0 0.00 0.00 0.00 87 1025.5
20260502052455 7 207 0.0 0.0 0.00 0.00 0.00 88 1025.4
20260502051928 6 207 0.0 0.0 0.00 0.00 0.00 89 1025.4
20260502051403 6 207 0.0 0.0 0.00 0.00 0.00 89 1025.5
20260502050859 5 207 0.0 0.0 0.00 0.00 0.00 89 1025.5
20260502050402 5 207 0.0 0.0 0.00 0.00 0.00 88 1025.5
20260502045831 5 207 0.0 0.0 0.00 0.00 0.00 89 1025.4
20260502044211 5 207 0.0 0.0 0.00 0.00 0.00 89 1025.2
20260502043645 4 207 0.0 0.0 0.00 0.00 0.00 89 1025.2
20260502043117 4 207 0.0 0.0 0.00 0.00 0.00 89 1025.2
20260502042616 4 207 0.0 0.0 0.00 0.00 0.00 89 1025.1
20260502041545 4 207 0.0 0.0 0.00 0.00 0.00 89 1025.2
20260502041044 4 207 0.0 0.0 0.00 0.00 0.00 89 1025.1
20260502040517 4 207 0.0 0.0 0.00 0.00 0.00 89 1025.1
20260502035952 4 207 0.0 0.0 0.00 0.00 0.00 89 1025.0
20260502035443 4 207 0.0 0.0 0.00 0.00 0.00 89 1025.1
20260502034941 4 207 0.0 0.0 0.00 0.00 0.00 89 1025.0
20260502034414 4 207 0.0 0.0 0.00 0.00 0.00 89 1025.0
20260502033913 4 207 0.0 0.0 0.00 0.00 0.00 88 1025.0
20260502033344 4 207 0.0 0.0 0.00 0.00 0.00 88 1025.0
20260502032838 4 207 0.0 0.0 0.00 0.00 0.00 88 1025.0
20260502032336 4 207 0.0 0.0 0.00 0.00 0.00 88 1024.9
20260502031807 4 207 0.0 0.0 0.00 0.00 0.00 88 1025.0
20260502031306 4 207 0.0 0.0 0.00 0.00 0.00 88 1025.0
20260502030737 4 207 0.0 0.0 0.00 0.00 0.00 88 1025.1
20260502030241 5 207 0.0 0.0 0.00 0.00 0.00 88 1025.1
20260502025731 5 207 0.0 0.0 0.00 0.00 0.00 88 1025.1
20260502025228 5 207 0.0 0.0 0.00 0.00 0.00 88 1025.1
20260502024716 5 207 0.0 0.0 0.00 0.00 0.00 88 1025.1
20260502024220 5 207 0.0 0.0 0.00 0.00 0.00 87 1025.2
20260502023707 5 207 0.0 0.0 0.00 0.00 0.00 88 1025.2
20260502022641 5 207 0.0 0.0 0.00 0.00 0.00 88 1025.1
20260502022140 5 207 0.0 0.0 0.00 0.00 0.00 88 1025.0
20260502021617 5 207 0.0 0.0 0.00 0.00 0.00 87 1025.1
20260502021048 5 207 0.0 0.0 0.00 0.00 0.00 87 1025.1
20260502020520 5 207 0.0 0.0 0.00 0.00 0.00 87 1025.1
20260502015956 5 207 0.0 0.0 0.00 0.00 0.00 87 1025.0
20260502015428 5 207 0.0 0.0 0.00 0.00 0.00 87 1025.0
20260502014901 5 207 0.0 0.0 0.00 0.00 0.00 87 1025.0
20260502014400 5 207 0.0 0.0 0.00 0.00 0.00 87 1025.1
20260502013352 5 207 0.0 0.0 0.00 0.00 0.00 86 1025.0
20260502011252 5 207 0.0 0.0 0.00 0.00 0.00 86 1025.0
20260502010724 5 207 0.0 0.0 0.00 0.00 0.00 86 1025.0
20260502010222 6 207 0.0 0.0 0.00 0.00 0.00 86 1025.0
20260502005720 6 207 0.0 0.0 0.00 0.00 0.00 86 1025.0
20260502005152 6 207 0.0 0.0 0.00 0.00 0.00 86 1024.9
20260502004121 6 207 0.0 0.0 0.00 0.00 0.00 85 1024.9
20260502003555 6 207 0.0 0.0 0.00 0.00 0.00 85 1024.9
20260502003031 6 207 0.0 0.0 0.00 0.00 0.00 85 1025.0
20260502002501 6 207 0.0 0.0 0.00 0.00 0.00 85 1025.0
20260502002000 6 207 0.0 0.0 0.00 0.00 0.00 84 1025.0
20260502001459 6 207 0.0 0.0 0.00 0.00 0.00 85 1025.1
20260502000951 6 207 0.0 0.0 0.00 0.00 0.00 85 1025.0
20260502000446 6 207 0.0 0.0 0.00 0.00 0.00 84 1025.1
20260501235944 6 207 0.0 0.0 0.00 0.00 0.00 84 1025.1
20260501235427 6 207 0.0 0.0 0.00 0.00 0.00 84 1025.1
20260501234847 6 207 0.0 0.0 0.00 0.00 0.00 84 1025.1
20260501234319 6 207 0.0 0.0 0.00 0.00 0.00 83 1025.1
20260501233817 6 207 0.0 0.0 0.00 0.00 0.00 83 1025.0
20260501233253 7 207 0.0 0.0 0.00 0.00 0.00 83 1025.0
20260501232753 7 207 0.0 0.0 0.00 0.00 0.00 83 1025.0
20260501232217 7 207 0.0 0.0 0.00 0.00 0.00 83 1025.0
20260501231658 7 207 0.0 0.0 0.00 0.00 0.00 83 1025.0
20260501231158 7 207 0.0 0.0 0.00 0.00 0.00 83 1025.0
20260501230632 7 207 0.0 0.0 0.00 0.00 0.00 83 1025.0
20260501230106 7 207 0.0 0.0 0.00 0.00 0.00 83 1024.9
20260501225039 7 207 0.0 0.0 0.00 0.00 0.00 82 1024.7
20260501224509 7 207 0.0 0.0 0.00 0.00 0.00 82 1024.7
20260501224010 7 207 0.0 0.0 0.00 0.00 0.00 81 1024.8
20260501222937 7 207 0.0 0.0 0.00 0.00 0.00 80 1024.8
20260501222410 7 207 0.0 0.0 0.00 0.00 0.00 80 1024.8
20260501221909 7 207 0.0 0.0 0.00 0.00 0.00 80 1024.8
20260501221403 8 207 0.0 0.0 0.00 0.00 0.00 81 1024.7
20260501220900 8 207 0.0 0.0 0.00 0.00 0.00 81 1024.6
20260501220357 8 207 0.0 0.0 0.00 0.00 0.00 81 1024.6
20260501215859 8 207 0.0 0.0 0.00 0.00 0.00 80 1024.5
20260501215335 8 207 0.0 0.0 0.00 0.00 0.00 80 1024.4
20260501214833 8 207 0.0 0.0 0.00 0.00 0.00 80 1024.4
20260501214335 8 207 0.0 0.0 0.00 0.00 0.00 80 1024.4
20260501213813 8 207 0.0 0.0 0.00 0.00 0.00 79 1024.2
20260501213301 8 207 0.0 0.0 0.00 0.00 0.00 79 1024.2
20260501212800 8 207 0.0 0.0 0.00 0.00 0.00 78 1024.2
20260501212257 8 207 0.0 0.0 0.00 0.00 0.00 78 1024.2
20260501211757 8 207 0.0 0.0 0.00 0.00 0.00 78 1024.1
20260501211233 8 207 0.0 0.0 0.00 0.00 0.00 78 1024.1
20260501210716 8 207 0.0 0.0 0.00 0.00 0.00 78 1024.1
20260501210217 8 207 0.0 0.0 0.00 0.00 0.00 78 1024.0
20260501205704 9 207 0.0 0.0 0.00 0.00 0.00 77 1024.0
20260501205202 9 207 0.0 0.0 0.00 0.00 0.00 75 1024.0
20260501204701 9 207 0.0 0.0 0.00 0.00 0.00 75 1023.9
20260501204203 9 207 0.0 0.0 0.00 0.00 0.00 75 1023.9
20260501202141 10 207 0.0 0.0 0.00 0.00 0.00 75 1023.6
20260501201636 10 207 0.0 0.0 0.00 0.00 0.00 74 1023.6
20260501201129 10 207 0.0 0.0 0.00 0.00 0.00 74 1023.5
20260501200627 10 207 0.0 0.0 0.00 0.00 0.00 72 1023.5